Grand Etang, Nova Scotia

1:11 PM ADT on April 21, 2018 (GMT -0300)
Grand Etang

Weather History for CWZQ - October, 2012

Change the Weather History Date:

Thursday, October 18, 2012

  Actual Average Record
Temperature  
Mean Temperature 44 °F -  
Max Temperature 50 °F - - ()
Min Temperature 37 °F - - ()
Degree Days  
Heating Degree Days 22    
Moisture  
Dew Point 39 °F    
Average Humidity 77    
Maximum Humidity 92    
Minimum Humidity 70    
Precipitation  
Precipitation 0.00 in - - ()
Sea Level Pressure  
Sea Level Pressure 30.06 in    
Wind  
Wind Speed 14 mph ()    
Max Wind Speed 22 mph    
Max Gust Speed 26 mph    
T = Trace of Precipitation, MM = Missing Value Source: Averaged Metar Reports

Daily Weather History Graph

Daily Weather History Graph

Search for Another Location

Airport or City:

Astronomy

Oct. 18, 2012 Rise Set
Actual Time 7:26 AM ADT 6:11 PM ADT
Civil Twilight 6:55 AM ADT 6:41 PM ADT
Nautical Twilight 6:20 AM ADT 7:16 PM ADT
Astronomical Twilight 5:45 AM ADT 7:51 PM ADT
Moon 11:15 AM ADT (10/18) 8:27 PM ADT (10/18)
Length of Visible Light 11h 45m
Length of Day
10h 44m
Waxing Crescent, 14% of the Moon is Illuminated
Oct 18
Waxing Crescent
Oct 22
First Quarter
Oct 29
Full
Nov 6
Last Quarter
Nov 13
New

Hourly Weather History & Observations

Time (ADT) Temp. Windchill Dew Point Humidity Pressure Visibility Wind Dir Wind Speed Gust Speed Precip Events Conditions
12:00 AM 46.9 °F - 39.6 °F 76% 29.86 in - NNW 21.9 mph - N/A   Unknown
12:20 AM 47.1 °F - 39.9 °F 76% - - NNW 18.4 mph 24.2 mph N/A   Unknown
12:40 AM 46.8 °F - 39.7 °F 77% - - NNW 20.7 mph 26.5 mph N/A   Unknown
1:00 AM 46.8 °F - 39.4 °F 75% 29.88 in - NNW 20.7 mph - N/A   Unknown
1:20 AM 46.6 °F - 39.2 °F 75% - - NNW 19.6 mph - N/A   Unknown
1:40 AM 46.9 °F - 39.6 °F 76% - - NNW 19.6 mph 26.5 mph N/A   Unknown
2:00 AM 46.6 °F - 39.0 °F 75% 29.89 in - NW 21.9 mph - N/A   Unknown
2:20 AM 46.6 °F - 39.0 °F 75% - - NW 19.6 mph - N/A   Unknown
2:40 AM 46.8 °F - 39.6 °F 76% - - NW 18.4 mph - N/A   Unknown
3:00 AM 46.6 °F - 39.2 °F 75% 29.91 in - NW 20.7 mph - N/A   Unknown
3:20 AM 46.8 °F - 39.6 °F 76% - - NW 17.3 mph - N/A   Unknown
3:40 AM 46.8 °F - 39.2 °F 75% - - NW 18.4 mph - N/A   Unknown
4:00 AM 46.4 °F 39.2 °F 38.3 °F 73% 29.93 in - NNW 18.4 mph - N/A   Unknown
4:20 AM 46.6 °F - 38.8 °F 74% - - NW 15.0 mph - N/A   Unknown
4:40 AM 46.6 °F - 38.8 °F 74% - - NW 17.3 mph - N/A   Unknown
5:00 AM 46.6 °F - 38.7 °F 74% 29.94 in - NW 17.3 mph - N/A   Unknown
5:20 AM 46.8 °F - 38.8 °F 74% - - WNW 17.3 mph - N/A   Unknown
5:40 AM 46.6 °F - 38.7 °F 74% - - NW 16.1 mph 23.0 mph N/A   Unknown
6:00 AM 46.2 °F 39.3 °F 38.3 °F 74% 29.97 in - NW 17.3 mph - N/A   Unknown
6:20 AM 46.6 °F - 39.0 °F 75% - - WNW 16.1 mph - N/A   Unknown
6:40 AM 46.8 °F - 39.4 °F 75% - - NW 15.0 mph 21.9 mph N/A   Unknown
7:00 AM 46.4 °F 39.8 °F 38.8 °F 75% 30.00 in - NW 16.1 mph - N/A   Unknown
7:20 AM 46.4 °F 40.4 °F 39.2 °F 76% - - NW 13.8 mph - N/A   Unknown
7:40 AM 46.4 °F 40.4 °F 39.2 °F 76% - - WNW 13.8 mph 20.7 mph N/A   Unknown
8:00 AM 46.2 °F 39.8 °F 39.0 °F 76% 30.04 in - WNW 15.0 mph - N/A   Unknown
8:20 AM 46.4 °F 41.1 °F 39.0 °F 75% - - NW 11.5 mph - N/A   Unknown
8:40 AM 46.6 °F - 39.4 °F 76% - - WNW 15.0 mph - N/A   Unknown
9:00 AM 46.8 °F - 39.6 °F 76% 30.06 in - NW 15.0 mph - N/A   Unknown
9:20 AM 46.9 °F - 39.6 °F 76% - - WNW 12.7 mph 19.6 mph N/A   Unknown
9:40 AM 47.3 °F - 40.1 °F 76% - - WNW 13.8 mph - N/A   Unknown
10:00 AM 47.3 °F - 39.6 °F 74% 30.09 in - WNW 13.8 mph - N/A   Unknown
10:20 AM 47.8 °F - 40.1 °F 75% - - NW 13.8 mph - N/A   Unknown
10:40 AM 47.8 °F - 39.4 °F 72% - - NW 16.1 mph - N/A   Unknown
11:00 AM 49.3 °F - 40.6 °F 72% 30.10 in - NW 16.1 mph - N/A   Unknown
11:20 AM 48.9 °F - 40.3 °F 72% - - NW 15.0 mph - N/A   Unknown
11:40 AM 48.4 °F - 40.1 °F 73% - - NW 16.1 mph - N/A   Unknown
12:00 PM 48.4 °F - 40.3 °F 74% 30.11 in - WNW 16.1 mph - N/A   Unknown
12:20 PM 48.7 °F - 40.5 °F 73% - - WNW 15.0 mph - N/A   Unknown
12:40 PM 50.2 °F - 40.8 °F 70% - - NW 13.8 mph - N/A   Unknown
1:00 PM 50.4 °F - 41.2 °F 71% 30.12 in - NW 16.1 mph - N/A   Unknown
1:20 PM 48.4 °F - 40.1 °F 73% - - NW 13.8 mph - N/A   Unknown
1:40 PM 50.5 °F - 41.7 °F 72% - - NW 11.5 mph - N/A   Unknown
2:20 PM 48.7 °F - 40.3 °F 73% - - NW 10.4 mph - N/A   Unknown
2:40 PM 48.7 °F - 40.5 °F 73% - - NW 10.4 mph - N/A   Unknown
3:00 PM 48.4 °F - 39.9 °F 73% 30.14 in - NW 11.5 mph - N/A   Unknown
3:20 PM 49.1 °F - 41.4 °F 75% - - NW 10.4 mph - N/A   Unknown
3:40 PM 50.9 °F - 41.5 °F 70% - - NW 9.2 mph - N/A   Unknown
4:00 PM 49.1 °F - 39.6 °F 70% 30.15 in - NW 10.4 mph - N/A   Unknown
4:20 PM 48.4 °F - 40.1 °F 73% - - NW 9.2 mph - N/A   Unknown
4:40 PM 48.6 °F - 39.2 °F 70% - - NW 9.2 mph - N/A   Unknown
5:00 PM 48.6 °F - 40.1 °F 73% 30.17 in - NW 9.2 mph - N/A   Unknown
5:20 PM 47.5 °F - 39.4 °F 73% - - NW 9.2 mph - N/A   Unknown
5:40 PM 46.9 °F - 38.5 °F 72% - - NW 5.8 mph - N/A   Unknown
6:00 PM 46.4 °F 41.9 °F 39.0 °F 75% 30.17 in - NW 9.2 mph - N/A   Unknown
6:20 PM 46.0 °F 43.9 °F 39.0 °F 76% - - NW 4.6 mph - N/A   Unknown
6:40 PM 45.5 °F 43.2 °F 38.1 °F 75% - - NW 4.6 mph - N/A   Unknown
7:00 PM 41.2 °F 37.3 °F 36.5 °F 83% 30.18 in - East 5.8 mph - N/A   Unknown
7:20 PM 40.1 °F 38.0 °F 36.5 °F 87% - - East 3.5 mph - N/A   Unknown
7:40 PM 39.2 °F 35.9 °F 35.8 °F 88% - - East 4.6 mph - N/A   Unknown
8:00 PM 39.0 °F 35.7 °F 35.8 °F 88% 30.19 in - East 4.6 mph - N/A   Unknown
8:20 PM 38.5 °F 34.1 °F 35.6 °F 89% - - ESE 5.8 mph - N/A   Unknown
8:40 PM 38.3 °F 33.9 °F 35.4 °F 89% - - ESE 5.8 mph - N/A   Unknown
9:00 PM 38.3 °F 33.9 °F 35.4 °F 89% 30.20 in - ESE 5.8 mph - N/A   Unknown
9:20 PM 37.8 °F 32.5 °F 35.2 °F 91% - - SE 6.9 mph - N/A   Unknown
9:40 PM 38.3 °F 32.5 °F 36.0 °F 91% - - SE 8.1 mph - N/A   Unknown
10:20 PM 38.8 °F 33.8 °F 36.5 °F 91% - - SE 6.9 mph - N/A   Unknown
10:40 PM 38.8 °F 33.2 °F 36.5 °F 91% - - SE 8.1 mph - N/A   Unknown
11:00 PM 38.7 °F 32.9 °F 36.5 °F 92% 30.23 in - SE 8.1 mph - N/A   Unknown
11:20 PM 39.2 °F 33.6 °F 36.9 °F 91% - - SE 8.1 mph - N/A   Unknown
11:40 PM 39.4 °F 33.8 °F 37.2 °F 92% - - SE 8.1 mph - N/A   Unknown